STARLINK-33825, 63505

Orbit data source: Space-Track

STARLINK-33825, 63505 is a payload satellite owned by SpaceX/Seattle (US) in LEO that was launched on Mon, 07 Apr 2025 UTC via an FALCON 9 launch vehicle from the Air Force Western Test Range (AFWTR). Payload-class satellites include a variety of spacecraft equipped with specific instruments for various scientific and technological missions. These include communications satellites like Starlink; space stations such as the ISS; scientific satellites like the Hubble; Earth observation satellites from companies like Planet Labs, Umbra, and HawkEye 360; GPS; miniature CubeSats for education and research; and military/defense satellites.

Loading next visibility...
Identifier
63505, 2025-071N
Orbit
LEO
Country
Flag of USUS
Related business
Manufacturer
SpaceX/Seattle
Mission
Operational Commercial Communications
Bus & Motor
STARLINK V2MO, Unknown motor
Mass
575 kg wet, ~530 kg dry
Launch date (UTC)
2025-04-07 (7 months ago)
Launch vehicle
FALCON 9
Launch site
Air Force Western Test Range (AFWTR)
Object type
Payload
Rocket body
Debris
Shape & HBR
Box + 2 Pan, 17.7 m
Radar Cross Section
36.964 m², Large (>1 m²)

Expand to show TLE details & history
Last TLE update: 14 hours ago

TLE from 14 hours ago
0 STARLINK-33825
1 63505U 25071N   25301.49428338  .00026385  00000-0  89921-3 0  9992
2 63505  53.1601  33.7070 0001120  68.8101 291.3019 15.30221313 32534
Epoch: 2025-10-28T11:51Z
TLE epoch observation values (Epoch: 2025-10-28T11:51:46.084Z)
Latitude
-0.00003°
Longitude
178.68399°
Altitude
475.772 km
Speed
7.629 km/s
True Right ascension
02h 14m 49s
True Declination
0° 00' 00"
Sunlit
Object was in full shadow at epoch
Visualization orbit readout
Latitude
Unknown
Longitude
Unknown
Altitude
Unknown
Speed
Unknown
Apparent Right ascension
Unknown
Apparent Declination
Unknown
Sunlit
N/A
Visualization observer readout
Local Sidereal Time
20:58:05
Azimuth
Unknown
Elevation
Unknown
Doppler factor
Unknown
Orbital elements
Apogee altitude
476.175 km
Perigee altitude
474.64 km
Semi-major axis
6,853.545 km
Eccentricity
0.00011
Inclination
53.1601°
RAAN
33.707°
Arg. of periapsis
68.8101°
True anomaly
291.28994°
Mean anomaly
291.3019°
Eccentric anomaly
291.29592°
Mean motion
3.82534 °/min
Orbital period
94.11 mins
BSTAR
0.00089921
Loading maneuver chart data...
Computing Atmospheric mass density...
Loading historical data...
Loading historical data...
Loading historical data...
Loading historical data...
Loading historical data...
Loading historical data...
Loading historical data...

Documentation

Showing up to 5 results
|